Weather History for Flagstaff, AZ

Change the Weather History Date:

Sunday, January 13, 2013

  Actual Average Record
Temperature  
Mean Temperature 8 °F 30 °F  
Max Temperature 22 °F 42 °F 59 °F (1996)
Min Temperature -7 °F 17 °F -7 °F (2013)
Degree Days  
Heating Degree Days 57 35  
Month to date heating degree days 583 461  
Since 1 July heating degree days 3154 3289  
Cooling Degree Days 0 0  
Month to date cooling degree days 0 0  
Year to date cooling degree days 0 0  
Moisture  
Dew Point -5 °F    
Average Humidity 58    
Maximum Humidity 82    
Minimum Humidity 34    
Precipitation  
Precipitation 0.00 in 0.06 in 1.12 in (1997)
Month to date precipitation 0.05 0.92  
Year to date precipitation 0.05 0.92  
Snow  
Snow 0.00 in 0.70 in 16.40 in (1997)
Month to date snowfall 1.0 9.3  
Since 1 July snowfall 30.6 38.4  
Snow Depth 0.00 in    
Sea Level Pressure  
Sea Level Pressure 30.06 in    
Wind  
Wind Speed 5 mph (SW)    
Max Wind Speed 17 mph    
Max Gust Speed 23 mph    
Visibility 10 miles    
Events      
T = Trace of Precipitation, MM = Missing Value Source: NWS Daily Summary

Daily Weather History Graph

Daily Weather History Graph

Search for Another Location

Airport:

Trip Planner

Search our weather history database for the weather conditions in past years. The results will help you decide how hot, cold, wet, or windy it might be!

Date:

Astronomy

Jan. 13, 2013 Rise Set
Actual Time 7:34 AM MST 5:36 PM MST
Civil Twilight 7:07 AM MST 6:04 PM MST
Nautical Twilight 6:36 AM MST 6:35 PM MST
Astronomical Twilight 6:05 AM MST 7:05 PM MST
Moon 8:42 AM MST (1/13) 8:11 PM MST (1/13)
Length of Visible Light 10h 56m
Length of Day
10h 01m
Waxing Crescent, 5% of the Moon is Illuminated
Jan 13
Waxing Crescent
Jan 18
First Quarter
Jan 26
Full
Feb 3
Last Quarter
Feb 10
New

Hourly Weather History & Observations

Time (MST) Temp. Windchill Dew Point Humidity Pressure Visibility Wind Dir Wind Speed Gust Speed Precip Events Conditions
12:57 AM 1.9 °F -5.6 °F -7.1 °F 66% 30.06 in 10.0 mi SSW 3.5 mph - N/A   Clear
1:57 AM 1.9 °F - -7.1 °F 66% 30.06 in 10.0 mi Calm Calm - N/A   Clear
2:57 AM -2.0 °F - -9.0 °F 72% 30.08 in 10.0 mi Calm Calm - N/A   Clear
3:57 AM -2.9 °F - -9.0 °F 75% 30.08 in 10.0 mi Calm Calm - N/A   Clear
4:57 AM -2.0 °F - -9.9 °F 69% 30.06 in 10.0 mi Calm Calm - N/A   Clear
5:57 AM -2.9 °F - -9.9 °F 72% 30.09 in 10.0 mi Calm Calm - N/A   Clear
6:57 AM -6.0 °F -14.7 °F -9.9 °F 83% 30.13 in 10.0 mi SW 3.5 mph - N/A   Clear
7:57 AM -6.0 °F -14.7 °F -11.9 °F 75% 30.13 in 10.0 mi SW 3.5 mph - N/A   Clear
8:57 AM 3.0 °F - -6.0 °F 66% 30.10 in 10.0 mi Calm Calm - N/A   Clear
9:57 AM 12.0 °F 0.5 °F -2.9 °F 51% 30.07 in 10.0 mi SW 8.1 mph - N/A   Clear
10:57 AM 17.1 °F 3.6 °F -2.9 °F 41% 30.04 in 10.0 mi SW 12.7 mph - N/A   Clear
11:57 AM 18.0 °F 4.8 °F -0.9 °F 44% 30.00 in 10.0 mi SSW 12.7 mph - N/A   Clear
12:57 PM 19.0 °F 6.8 °F -0.0 °F 43% 29.99 in 10.0 mi SSW 11.5 mph 19.6 mph N/A   Clear
1:57 PM 21.0 °F 7.6 °F -2.0 °F 36% 29.98 in 10.0 mi SW 15.0 mph 18.4 mph N/A   Clear
2:57 PM 21.0 °F 9.3 °F -2.0 °F 36% 30.00 in 10.0 mi SW 11.5 mph - N/A   Clear
3:57 PM 19.9 °F 6.2 °F -2.0 °F 38% 30.02 in 10.0 mi SSW 15.0 mph - N/A   Clear
4:57 PM 19.0 °F 7.5 °F -5.1 °F 34% 30.03 in 10.0 mi WSW 10.4 mph - N/A   Clear
5:57 PM 15.1 °F 7.7 °F -0.9 °F 49% 30.07 in 10.0 mi SW 4.6 mph - N/A   Mostly Cloudy
6:57 PM 12.0 °F 5.9 °F -2.9 °F 51% 30.10 in 10.0 mi South 3.5 mph - N/A   Scattered Clouds
7:57 PM 8.1 °F - -4.0 °F 58% 30.12 in 10.0 mi Calm Calm - N/A   Clear
8:57 PM 7.0 °F - -5.1 °F 58% 30.07 in 10.0 mi Calm Calm - N/A   Overcast
9:57 PM 3.9 °F - -5.1 °F 66% 30.04 in 10.0 mi Calm Calm - N/A   Scattered Clouds
10:57 PM 1.9 °F - -6.0 °F 69% 30.02 in 10.0 mi Calm Calm - N/A   Overcast
11:57 PM -0.0 °F - -7.1 °F 72% 30.04 in 10.0 mi Calm Calm - N/A   Clear